Location: Limerick
(52.6650°N, 8.6230°W)
Time: 21:52:13
(UTC+00:00)

ISS - Pass Details

Date: 11 November 2019
Orbit: 412 x 421 km, 51.6° (Epoch: 15 November)

Event Time Altitude Azimuth Distance (km) Brightness Sun altitude
Exits shadow 06:20:25 10° 225° (SW) 1,492 -1.3 -13.4°
Maximum altitude 06:20:34 10° 223° (SW) 1,490 -1.3 -13.4°
Drops below altitude 10° 06:21:00 10° 215° (SW) 1,501 -1.2 -13.3°
Sets 06:24:53 0° 170° (S) 2,356 0.4 -12.8°
